Starlink 6369

operational
NORAD ID: 57374 Int'l Des: 2023-099 Owner: SPXS Country: US Constellation: starlink
LEOCIRCULAR

关于 Starlink 6369

正在加载描述...

实时位置

正在加载3D地球...

即将过境

高度历史

Altitude vs Time

uPlot chart will show altitude changes over time

两行轨道根数

1 57374U 23099AY 25307.96472187 .00002000 00000-0 16309-3 0 9994
2 57374 43.0036 186.1364 0000995 271.3331 88.7397 15.02540315127509
Epoch: Nov 3, 2025 • Age: 12 hours

当前状态

高度 564.8 km
速度 7.58 km/s
星下点 -24.97°S, 179.9°E
发射日期 Jul 16, 2023
运行时间 2.3 years
类型 internet

技术详情

分类 Payload
质量 305.00 kg
干质量 290.00 kg
总质量 305.00 kg
长度 0.20 m
直径 2.80 m
跨度 9.00 m
形状 Box + pan
制造商 SPXS
平台类型 Starlink
阶段状态 In Orbit
所有者/国家 SPXS/US

大型星座

Loading constellations...